Station Historical Data
Daily Summary for November 7, 2017 Units:  English    Metric   Both
« Previous Day
Next Day »
Daily Weekly Monthly Yearly Custom
  High: Low: Average:
Temperature: 44.9 °F 29.4 °F 38.5 °F
Dew Point: 33.1 °F 25.9 °F 30.5 °F
Humidity: 88% 59% 73%
Wind Speed: 8.0mph 0.0mph 1.3mph
Wind Gust: 11.0mph - -
Wind- - East
Pressure: 30.32 in 30.24 in -
Precipitation: 0.00 in    
Historical Graphs
 
 
Tabular Data for November 7, 2017
Time Temperature Dew Point Pressure Wind Wind Speed Wind Gust Humidity Rainfall Rate (Hourly)
00:04 37.6 °F 32.6 °F 30.27 in Calm     82% 0.00 in
00:09 37.7 °F 32.7 °F 30.27 in Calm     82% 0.00 in
00:14 37.9 °F 32.9 °F 30.26 in Calm     82% 0.00 in
00:19 37.9 °F 32.9 °F 30.26 in Calm     82% 0.00 in
00:24 38.0 °F 33.0 °F 30.26 in Calm     82% 0.00 in
00:29 38.1 °F 33.1 °F 30.27 in Calm     82% 0.00 in
00:34 38.1 °F 32.8 °F 30.26 in Calm     81% 0.00 in
00:39 38.2 °F 32.9 °F 30.26 in Calm     81% 0.00 in
00:44 38.2 °F 32.9 °F 30.26 in Calm     81% 0.00 in
00:49 38.1 °F 32.5 °F 30.26 in Calm     80% 0.00 in
00:54 38.2 °F 32.3 °F 30.27 in Calm     79% 0.00 in
00:59 38.4 °F 32.8 °F 30.27 in Calm     80% 0.00 in
01:04 38.5 °F 32.9 °F 30.27 in Calm     80% 0.00 in
01:09 38.5 °F 32.9 °F 30.27 in Calm     80% 0.00 in
01:14 38.5 °F 32.9 °F 30.26 in Calm     80% 0.00 in
01:19 38.3 °F 32.4 °F 30.26 in Calm     79% 0.00 in
01:24 38.4 °F 32.1 °F 30.26 in Calm     78% 0.00 in
01:29 38.5 °F 31.9 °F 30.26 in Calm     77% 0.00 in
01:34 38.6 °F 31.7 °F 30.26 in Calm     76% 0.00 in
01:39 38.6 °F 31.7 °F 30.27 in Calm     76% 0.00 in
01:44 38.6 °F 31.7 °F 30.27 in Calm     76% 0.00 in
01:49 38.7 °F 31.5 °F 30.27 in Calm     75% 0.00 in
01:54 38.7 °F 31.8 °F 30.27 in Calm     76% 0.00 in
01:59 38.6 °F 31.7 °F 30.27 in Calm     76% 0.00 in
02:04 38.6 °F 31.7 °F 30.27 in Calm   3.0 mph 76% 0.00 in
02:09 38.6 °F 31.7 °F 30.26 in Calm     76% 0.00 in
02:14 38.6 °F 31.7 °F 30.27 in Calm   1.0 mph 76% 0.00 in
02:19 38.6 °F 31.7 °F 30.27 in Calm     76% 0.00 in
02:24 38.5 °F 31.6 °F 30.27 in Calm   1.0 mph 76% 0.00 in
02:29 38.4 °F 31.5 °F 30.27 in Calm   1.0 mph 76% 0.00 in
02:34 38.4 °F 31.5 °F 30.27 in Calm   3.0 mph 76% 0.00 in
02:39 38.5 °F 31.3 °F 30.27 in Calm   1.0 mph 75% 0.00 in
02:44 38.5 °F 31.6 °F 30.26 in Calm     76% 0.00 in
02:49 38.4 °F 31.5 °F 30.27 in Calm     76% 0.00 in
02:54 38.2 °F 31.3 °F 30.27 in Calm     76% 0.00 in
02:59 38.0 °F 31.1 °F 30.26 in Calm     76% 0.00 in
03:04 37.7 °F 30.8 °F 30.26 in Calm     76% 0.00 in
03:09 37.5 °F 30.9 °F 30.26 in Calm     77% 0.00 in
03:14 37.3 °F 30.7 °F 30.27 in Calm     77% 0.00 in
03:19 37.5 °F 31.3 °F 30.27 in Calm     78% 0.00 in
03:24 37.7 °F 31.5 °F 30.28 in Calm     78% 0.00 in
03:29 37.8 °F 31.6 °F 30.28 in Calm     78% 0.00 in
03:34 37.9 °F 31.7 °F 30.29 in Calm   2.0 mph 78% 0.00 in
03:39 38.0 °F 31.4 °F 30.28 in Calm     77% 0.00 in
03:44 38.0 °F 31.7 °F 30.28 in Calm     78% 0.00 in
03:49 38.0 °F 31.7 °F 30.28 in NNW 1.0 mph 3.0 mph 78% 0.00 in
03:54 38.0 °F 31.4 °F 30.28 in Calm   3.0 mph 77% 0.00 in
03:59 38.0 °F 31.4 °F 30.28 in Calm   3.0 mph 77% 0.00 in
04:04 38.0 °F 31.4 °F 30.29 in Calm   1.0 mph 77% 0.00 in
04:09 38.0 °F 31.1 °F 30.28 in Calm     76% 0.00 in
04:14 38.0 °F 31.4 °F 30.29 in Calm     77% 0.00 in
04:19 38.1 °F 31.5 °F 30.30 in Calm   2.0 mph 77% 0.00 in
04:24 38.1 °F 31.5 °F 30.30 in Calm   1.0 mph 77% 0.00 in
04:29 38.2 °F 31.6 °F 30.30 in Calm     77% 0.00 in
04:34 38.2 °F 31.6 °F 30.30 in Calm     77% 0.00 in
04:39 38.2 °F 31.6 °F 30.30 in Calm     77% 0.00 in
04:44 38.3 °F 31.7 °F 30.29 in Calm     77% 0.00 in
04:49 38.3 °F 31.7 °F 30.29 in Calm     77% 0.00 in
04:54 38.4 °F 31.8 °F 30.30 in Calm     77% 0.00 in
04:59 38.4 °F 32.1 °F 30.29 in Calm     78% 0.00 in
05:04 38.5 °F 31.9 °F 30.29 in Calm     77% 0.00 in
05:09 38.5 °F 31.9 °F 30.28 in Calm     77% 0.00 in
05:14 38.6 °F 32.0 °F 30.28 in Calm   4.0 mph 77% 0.00 in
05:19 38.7 °F 32.1 °F 30.28 in Calm   4.0 mph 77% 0.00 in
05:24 38.7 °F 32.1 °F 30.27 in NE 5.0 mph 7.0 mph 77% 0.00 in
05:29 38.6 °F 32.0 °F 30.27 in East 3.0 mph 5.0 mph 77% 0.00 in
05:34 38.7 °F 32.1 °F 30.27 in ENE 2.0 mph 6.0 mph 77% 0.00 in
05:39 38.7 °F 32.1 °F 30.27 in ENE 5.0 mph 7.0 mph 77% 0.00 in
05:44 38.7 °F 32.1 °F 30.26 in ENE 3.0 mph 7.0 mph 77% 0.00 in
05:49 38.7 °F 32.1 °F 30.26 in ENE 3.0 mph 5.0 mph 77% 0.00 in
05:54 38.7 °F 32.1 °F 30.27 in ENE 2.0 mph 6.0 mph 77% 0.00 in
05:59 38.6 °F 32.0 °F 30.27 in NE 3.0 mph 6.0 mph 77% 0.00 in
06:04 38.6 °F 32.0 °F 30.28 in ENE 2.0 mph 5.0 mph 77% 0.00 in
06:09 38.6 °F 32.0 °F 30.28 in Calm   4.0 mph 77% 0.00 in
06:19 38.6 °F 32.0 °F 30.29 in Calm   3.0 mph 77% 0.00 in
06:24 38.6 °F 32.0 °F 30.29 in Calm   3.0 mph 77% 0.00 in
06:29 38.7 °F 32.1 °F 30.29 in Calm     77% 0.00 in
06:34 38.6 °F 32.0 °F 30.30 in Calm     77% 0.00 in
06:39 38.7 °F 32.1 °F 30.31 in Calm     77% 0.00 in
06:44 38.8 °F 32.2 °F 30.31 in ENE 1.0 mph 4.0 mph 77% 0.00 in
06:49 38.8 °F 32.2 °F 30.31 in ENE 2.0 mph 5.0 mph 77% 0.00 in
06:54 38.8 °F 32.2 °F 30.31 in ENE 2.0 mph 5.0 mph 77% 0.00 in
06:59 38.9 °F 32.3 °F 30.30 in ENE 1.0 mph 5.0 mph 77% 0.00 in
07:04 38.8 °F 31.9 °F 30.30 in SE 1.0 mph 4.0 mph 76% 0.00 in
07:09 38.7 °F 32.1 °F 30.31 in ESE 1.0 mph 4.0 mph 77% 0.00 in
07:14 38.7 °F 32.1 °F 30.31 in ESE 1.0 mph 3.0 mph 77% 0.00 in
07:19 38.7 °F 32.1 °F 30.31 in SE 1.0 mph 3.0 mph 77% 0.00 in
07:24 38.7 °F 32.1 °F 30.31 in SE 1.0 mph 3.0 mph 77% 0.00 in
07:29 38.7 °F 32.1 °F 30.31 in Calm   4.0 mph 77% 0.00 in
07:34 38.8 °F 32.2 °F 30.31 in SSE 2.0 mph 3.0 mph 77% 0.00 in
07:39 38.8 °F 32.2 °F 30.32 in Calm   2.0 mph 77% 0.00 in
07:49 38.9 °F 32.3 °F 30.31 in South 1.0 mph 4.0 mph 77% 0.00 in
07:54 39.0 °F 32.7 °F 30.31 in East 5.0 mph 7.0 mph 78% 0.00 in
07:59 39.0 °F 32.7 °F 30.32 in SE 1.0 mph 7.0 mph 78% 0.00 in
08:04 39.0 °F 32.4 °F 30.31 in SE 2.0 mph 6.0 mph 77% 0.00 in
08:09 39.0 °F 32.4 °F 30.32 in SE 2.0 mph 4.0 mph 77% 0.00 in
08:14 39.1 °F 32.5 °F 30.32 in ESE 1.0 mph 4.0 mph 77% 0.00 in
08:19 39.2 °F 32.6 °F 30.32 in ESE 1.0 mph 3.0 mph 77% 0.00 in
08:24 39.1 °F 32.5 °F 30.32 in SE 1.0 mph 4.0 mph 77% 0.00 in
08:29 39.2 °F 32.3 °F 30.32 in ESE 2.0 mph 5.0 mph 76% 0.00 in
08:34 39.3 °F 32.4 °F 30.31 in ESE 1.0 mph 5.0 mph 76% 0.00 in
08:39 39.4 °F 32.5 °F 30.31 in SE 1.0 mph 4.0 mph 76% 0.00 in
08:44 39.5 °F 32.6 °F 30.31 in Calm   3.0 mph 76% 0.00 in
08:49 39.6 °F 32.7 °F 30.31 in SE 1.0 mph 2.0 mph 76% 0.00 in
08:54 39.6 °F 32.3 °F 30.31 in ESE 5.0 mph 5.0 mph 75% 0.00 in
08:59 39.7 °F 32.4 °F 30.31 in ESE 1.0 mph 5.0 mph 75% 0.00 in
09:09 40.2 °F 32.6 °F 30.31 in ESE 1.0 mph 5.0 mph 74% 0.00 in
09:14 40.4 °F 32.4 °F 30.31 in ESE 1.0 mph 5.0 mph 73% 0.00 in
09:19 40.7 °F 32.4 °F 30.31 in East 1.0 mph 6.0 mph 72% 0.00 in
09:24 40.6 °F 32.3 °F 30.30 in East 2.0 mph 8.0 mph 72% 0.00 in
09:29 40.4 °F 32.1 °F 30.29 in SSE 2.0 mph 7.0 mph 72% 0.00 in
09:34 40.4 °F 31.7 °F 30.29 in East 3.0 mph 8.0 mph 71% 0.00 in
09:39 40.4 °F 31.7 °F 30.30 in East 3.0 mph 8.0 mph 71% 0.00 in
09:44 40.4 °F 31.7 °F 30.29 in East 3.0 mph 7.0 mph 71% 0.00 in
09:49 40.3 °F 31.6 °F 30.29 in ENE 5.0 mph 8.0 mph 71% 0.00 in
09:54 40.2 °F 31.5 °F 30.29 in East 6.0 mph 9.0 mph 71% 0.00 in
09:59 40.5 °F 32.2 °F 30.29 in East 2.0 mph 7.0 mph 72% 0.00 in
10:04 40.8 °F 32.1 °F 30.28 in ENE 7.0 mph 8.0 mph 71% 0.00 in
10:09 40.7 °F 31.7 °F 30.29 in East 3.0 mph 8.0 mph 70% 0.00 in
10:14 40.7 °F 32.0 °F 30.29 in ESE 3.0 mph 8.0 mph 71% 0.00 in
10:19 40.9 °F 31.5 °F 30.29 in East 3.0 mph 8.0 mph 69% 0.00 in
10:24 40.9 °F 31.9 °F 30.29 in ENE 4.0 mph 8.0 mph 70% 0.00 in
10:29 41.2 °F 32.2 °F 30.29 in East 3.0 mph 7.0 mph 70% 0.00 in
10:34 41.5 °F 32.4 °F 30.29 in ESE 2.0 mph 7.0 mph 70% 0.00 in
10:39 41.6 °F 32.2 °F 30.30 in East 2.0 mph 7.0 mph 69% 0.00 in
10:44 41.8 °F 32.0 °F 30.29 in ENE 3.0 mph 9.0 mph 68% 0.00 in
10:49 41.8 °F 32.0 °F 30.29 in NNE 5.0 mph 7.0 mph 68% 0.00 in
10:54 41.6 °F 31.4 °F 30.29 in SE 4.0 mph 7.0 mph 67% 0.00 in
10:59 41.9 °F 32.1 °F 30.29 in NE 3.0 mph 8.0 mph 68% 0.00 in
11:04 41.8 °F 31.6 °F 30.28 in ESE 2.0 mph 8.0 mph 67% 0.00 in
11:09 41.9 °F 31.7 °F 30.28 in NE 3.0 mph 8.0 mph 67% 0.00 in
11:19 42.1 °F 31.9 °F 30.27 in ENE 4.0 mph 8.0 mph 67% 0.00 in
11:24 42.5 °F 32.3 °F 30.26 in ENE 3.0 mph 8.0 mph 67% 0.00 in
11:29 42.5 °F 31.6 °F 30.27 in East 5.0 mph 8.0 mph 65% 0.00 in
11:34 42.5 °F 31.2 °F 30.27 in ENE 4.0 mph 8.0 mph 64% 0.00 in
11:39 42.5 °F 31.6 °F 30.27 in NE 2.0 mph 9.0 mph 65% 0.00 in
11:49 42.6 °F 30.9 °F 30.26 in NE 4.0 mph 9.0 mph 63% 0.00 in
11:54 42.6 °F 30.9 °F 30.27 in ENE 4.0 mph 9.0 mph 63% 0.00 in
11:59 42.6 °F 30.9 °F 30.27 in ENE 4.0 mph 9.0 mph 63% 0.00 in
12:04 42.7 °F 31.0 °F 30.27 in NE 1.0 mph 7.0 mph 63% 0.00 in
12:09 42.8 °F 31.1 °F 30.27 in ESE 7.0 mph 11.0 mph 63% 0.00 in
12:14 42.7 °F 31.0 °F 30.26 in NE 2.0 mph 10.0 mph 63% 0.00 in
12:19 42.9 °F 31.2 °F 30.26 in ENE 4.0 mph 10.0 mph 63% 0.00 in
12:24 42.8 °F 30.7 °F 30.25 in ENE 2.0 mph 7.0 mph 62% 0.00 in
12:29 42.9 °F 30.8 °F 30.25 in ENE 4.0 mph 8.0 mph 62% 0.00 in
12:34 42.8 °F 30.7 °F 30.25 in ENE 4.0 mph 9.0 mph 62% 0.00 in
12:39 42.9 °F 30.8 °F 30.25 in East 2.0 mph 8.0 mph 62% 0.00 in
12:44 42.9 °F 31.2 °F 30.26 in NE 2.0 mph 9.0 mph 63% 0.00 in
12:54 43.1 °F 30.6 °F 30.25 in ENE 3.0 mph 9.0 mph 61% 0.00 in
12:59 43.2 °F 30.6 °F 30.25 in ENE 4.0 mph 10.0 mph 61% 0.00 in
13:04 43.5 °F 30.9 °F 30.25 in ENE 4.0 mph 10.0 mph 61% 0.00 in
13:09 43.3 °F 30.3 °F 30.25 in ESE 1.0 mph 8.0 mph 60% 0.00 in
13:14 43.2 °F 31.1 °F 30.25 in NE 4.0 mph 8.0 mph 62% 0.00 in
13:19 42.8 °F 30.3 °F 30.25 in ENE 4.0 mph 10.0 mph 61% 0.00 in
13:24 43.0 °F 30.9 °F 30.25 in ENE 4.0 mph 10.0 mph 62% 0.00 in
13:29 43.1 °F 31.0 °F 30.25 in ENE 4.0 mph 7.0 mph 62% 0.00 in
13:34 42.8 °F 30.3 °F 30.25 in ENE 2.0 mph 9.0 mph 61% 0.00 in
13:39 43.0 °F 30.9 °F 30.25 in ENE 1.0 mph 5.0 mph 62% 0.00 in
13:44 43.2 °F 30.6 °F 30.25 in ENE 8.0 mph 11.0 mph 61% 0.00 in
13:49 42.9 °F 30.4 °F 30.25 in NE 4.0 mph 10.0 mph 61% 0.00 in
13:54 43.0 °F 30.1 °F 30.24 in NE 5.0 mph 10.0 mph 60% 0.00 in
13:59 43.3 °F 30.7 °F 30.24 in ENE 4.0 mph 8.0 mph 61% 0.00 in
14:04 44.3 °F 31.3 °F 30.24 in ENE 4.0 mph 8.0 mph 60% 0.00 in
14:09 44.9 °F 31.4 °F 30.24 in ENE 2.0 mph 11.0 mph 59% 0.00 in
14:14 44.4 °F 31.0 °F 30.24 in NE 6.0 mph 8.0 mph 59% 0.00 in
14:19 44.2 °F 31.2 °F 30.24 in NE 6.0 mph 8.0 mph 60% 0.00 in
14:24 44.3 °F 31.3 °F 30.24 in East 4.0 mph 11.0 mph 60% 0.00 in
14:29 44.3 °F 31.3 °F 30.24 in ENE 5.0 mph 11.0 mph 60% 0.00 in
14:34 43.6 °F 30.2 °F 30.24 in ENE 4.0 mph 8.0 mph 59% 0.00 in
14:39 43.7 °F 31.1 °F 30.24 in NE 2.0 mph 7.0 mph 61% 0.00 in
14:44 44.4 °F 31.8 °F 30.24 in NE 2.0 mph 7.0 mph 61% 0.00 in
14:49 43.7 °F 30.7 °F 30.24 in NE 2.0 mph 5.0 mph 60% 0.00 in
14:54 43.2 °F 30.6 °F 30.24 in NE 3.0 mph 8.0 mph 61% 0.00 in
14:59 43.1 °F 30.6 °F 30.24 in ENE 3.0 mph 8.0 mph 61% 0.00 in
15:04 43.3 °F 31.5 °F 30.24 in East 2.0 mph 5.0 mph 63% 0.00 in
15:09 43.8 °F 31.2 °F 30.24 in ENE 3.0 mph 9.0 mph 61% 0.00 in
15:14 43.4 °F 30.4 °F 30.24 in ENE 5.0 mph 9.0 mph 60% 0.00 in
15:19 42.9 °F 30.4 °F 30.24 in Calm   9.0 mph 61% 0.00 in
15:24 42.6 °F 30.5 °F 30.24 in Calm   6.0 mph 62% 0.00 in
15:29 42.5 °F 30.4 °F 30.24 in NE 2.0 mph 7.0 mph 62% 0.00 in
15:34 42.3 °F 29.8 °F 30.24 in NE 4.0 mph 7.0 mph 61% 0.00 in
15:39 41.9 °F 29.8 °F 30.24 in NE 6.0 mph 8.0 mph 62% 0.00 in
15:44 41.9 °F 29.8 °F 30.24 in Calm   7.0 mph 62% 0.00 in
15:49 42.0 °F 29.9 °F 30.24 in ENE 5.0 mph 6.0 mph 62% 0.00 in
15:54 42.2 °F 30.5 °F 30.24 in NE 2.0 mph 6.0 mph 63% 0.00 in
15:59 42.3 °F 29.8 °F 30.24 in NE 3.0 mph 10.0 mph 61% 0.00 in
16:04 42.2 °F 29.3 °F 30.24 in NE 4.0 mph 10.0 mph 60% 0.00 in
16:09 42.0 °F 29.5 °F 30.24 in NE 4.0 mph 10.0 mph 61% 0.00 in
16:14 41.6 °F 29.1 °F 30.25 in NE 3.0 mph 9.0 mph 61% 0.00 in
16:19 41.4 °F 29.3 °F 30.25 in East 2.0 mph 9.0 mph 62% 0.00 in
16:24 41.3 °F 29.6 °F 30.25 in Calm   5.0 mph 63% 0.00 in
16:29 41.1 °F 29.5 °F 30.25 in ENE 7.0 mph 7.0 mph 63% 0.00 in
16:34 40.9 °F 29.7 °F 30.25 in ENE 1.0 mph 7.0 mph 64% 0.00 in
16:39 40.9 °F 29.7 °F 30.26 in ENE 3.0 mph 4.0 mph 64% 0.00 in
16:44 40.8 °F 29.6 °F 30.25 in NE 4.0 mph 4.0 mph 64% 0.00 in
16:49 40.7 °F 29.5 °F 30.26 in ENE 2.0 mph 7.0 mph 64% 0.00 in
16:54 40.5 °F 29.7 °F 30.26 in ENE 2.0 mph 4.0 mph 65% 0.00 in
16:59 40.2 °F 29.4 °F 30.26 in ENE 1.0 mph 4.0 mph 65% 0.00 in
17:09 39.9 °F 29.1 °F 30.26 in ENE 1.0 mph 3.0 mph 65% 0.00 in
17:14 39.8 °F 29.0 °F 30.26 in ENE 1.0 mph 3.0 mph 65% 0.00 in
17:19 39.7 °F 28.9 °F 30.26 in Calm   3.0 mph 65% 0.00 in
17:24 39.3 °F 28.9 °F 30.26 in Calm     66% 0.00 in
17:29 39.1 °F 29.1 °F 30.26 in Calm   2.0 mph 67% 0.00 in
17:34 39.0 °F 29.0 °F 30.26 in Calm     67% 0.00 in
17:39 38.7 °F 29.0 °F 30.26 in Calm     68% 0.00 in
17:44 38.2 °F 28.9 °F 30.27 in Calm     69% 0.00 in
17:49 38.0 °F 29.1 °F 30.27 in Calm   2.0 mph 70% 0.00 in
17:54 37.9 °F 29.0 °F 30.27 in Calm     70% 0.00 in
17:59 37.7 °F 28.8 °F 30.27 in Calm     70% 0.00 in
18:04 37.2 °F 28.7 °F 30.28 in Calm   1.0 mph 71% 0.00 in
18:09 37.0 °F 28.8 °F 30.28 in Calm   1.0 mph 72% 0.00 in
18:14 36.8 °F 29.0 °F 30.28 in Calm   1.0 mph 73% 0.00 in
18:19 36.9 °F 29.1 °F 30.28 in Calm   1.0 mph 73% 0.00 in
18:24 36.5 °F 28.7 °F 30.28 in Calm     73% 0.00 in
18:29 36.3 °F 28.8 °F 30.28 in Calm     74% 0.00 in
18:34 36.3 °F 28.8 °F 30.28 in Calm     74% 0.00 in
18:39 36.2 °F 28.7 °F 30.28 in Calm     74% 0.00 in
18:44 36.0 °F 28.8 °F 30.28 in Calm     75% 0.00 in
18:49 35.8 °F 29.0 °F 30.28 in Calm     76% 0.00 in
18:54 36.0 °F 28.8 °F 30.28 in Calm     75% 0.00 in
18:59 36.3 °F 29.1 °F 30.28 in Calm     75% 0.00 in
19:04 36.1 °F 28.6 °F 30.28 in Calm     74% 0.00 in
19:09 36.3 °F 29.1 °F 30.28 in Calm     75% 0.00 in
19:14 36.5 °F 29.0 °F 30.28 in Calm     74% 0.00 in
19:19 36.3 °F 28.8 °F 30.28 in Calm     74% 0.00 in
19:24 36.1 °F 28.6 °F 30.28 in Calm     74% 0.00 in
19:29 36.0 °F 28.8 °F 30.28 in Calm     75% 0.00 in
19:34 35.9 °F 28.7 °F 30.28 in Calm     75% 0.00 in
19:39 35.6 °F 28.5 °F 30.28 in Calm     75% 0.00 in
19:44 35.3 °F 28.5 °F 30.28 in Calm     76% 0.00 in
19:49 35.1 °F 28.6 °F 30.28 in Calm     77% 0.00 in
19:54 34.8 °F 28.3 °F 30.28 in Calm     77% 0.00 in
19:59 34.6 °F 28.1 °F 30.28 in Calm     77% 0.00 in
20:04 34.5 °F 28.3 °F 30.29 in Calm     78% 0.00 in
20:09 34.2 °F 28.1 °F 30.29 in Calm     78% 0.00 in
20:14 34.0 °F 28.2 °F 30.29 in Calm     79% 0.00 in
20:19 34.1 °F 28.6 °F 30.29 in Calm     80% 0.00 in
20:24 34.4 °F 28.6 °F 30.29 in Calm     79% 0.00 in
20:29 34.6 °F 28.8 °F 30.29 in Calm     79% 0.00 in
20:34 34.6 °F 28.8 °F 30.29 in Calm     79% 0.00 in
20:39 34.6 °F 28.8 °F 30.28 in Calm     79% 0.00 in
20:44 34.4 °F 28.6 °F 30.29 in Calm     79% 0.00 in
20:49 34.2 °F 28.4 °F 30.29 in Calm     79% 0.00 in
20:59 33.5 °F 28.0 °F 30.29 in Calm     80% 0.00 in
21:04 33.5 °F 28.0 °F 30.29 in Calm     80% 0.00 in
21:09 33.5 °F 28.0 °F 30.29 in Calm     80% 0.00 in
21:14 33.3 °F 27.8 °F 30.29 in Calm     80% 0.00 in
21:19 33.0 °F 27.8 °F 30.29 in Calm     81% 0.00 in
21:24 32.8 °F 27.6 °F 30.29 in Calm     81% 0.00 in
21:29 32.6 °F 27.4 °F 30.29 in Calm     81% 0.00 in
21:34 32.4 °F 27.5 °F 30.28 in Calm     82% 0.00 in
21:39 32.3 °F 27.4 °F 30.29 in Calm     82% 0.00 in
21:44 32.0 °F 27.1 °F 30.29 in Calm     82% 0.00 in
21:49 32.0 °F 27.4 °F 30.29 in Calm     83% 0.00 in
21:54 32.1 °F 27.5 °F 30.29 in Calm     83% 0.00 in
21:59 31.9 °F 27.3 °F 30.29 in Calm     83% 0.00 in
22:04 31.6 °F 27.0 °F 30.29 in Calm     83% 0.00 in
22:14 31.2 °F 26.9 °F 30.29 in Calm     84% 0.00 in
22:19 31.0 °F 26.7 °F 30.29 in Calm     84% 0.00 in
22:24 30.8 °F 26.5 °F 30.29 in Calm     84% 0.00 in
22:34 30.4 °F 26.4 °F 30.29 in Calm     85% 0.00 in
22:39 30.2 °F 26.2 °F 30.29 in Calm     85% 0.00 in
22:44 30.1 °F 26.4 °F 30.29 in Calm     86% 0.00 in
22:49 30.2 °F 26.5 °F 30.29 in Calm     86% 0.00 in
22:54 30.2 °F 26.5 °F 30.29 in Calm     86% 0.00 in
22:59 30.0 °F 26.3 °F 30.29 in Calm     86% 0.00 in
23:04 29.9 °F 26.5 °F 30.29 in Calm     87% 0.00 in
23:09 29.6 °F 25.9 °F 30.29 in Calm     86% 0.00 in
23:14 29.7 °F 26.3 °F 30.29 in Calm     87% 0.00 in
23:19 29.6 °F 26.2 °F 30.29 in Calm     87% 0.00 in
23:24 29.8 °F 26.4 °F 30.29 in Calm     87% 0.00 in
23:29 29.7 °F 26.6 °F 30.29 in Calm     88% 0.00 in
23:39 29.6 °F 26.2 °F 30.29 in Calm     87% 0.00 in
23:44 29.4 °F 26.0 °F 30.29 in Calm     87% 0.00 in
23:49 29.6 °F 26.5 °F 30.29 in Calm     88% 0.00 in
23:54 29.5 °F 26.1 °F 30.29 in Calm     87% 0.00 in
23:59 29.5 °F 26.4 °F 30.29 in Calm     88% 0.00 in
Buffalo, New York, USA
Compliments of Weather Underground - 2.25 mb